User: anonymous   Login
Location: Unspecified
(0.0000°N, 0.0000°E)
Time: 16:48:17
(UTC+00:00)
Language:

Hubble Space Telescope - Orbit

View from above orbital plane
View from above orbital plane
View from above satellite
View from above satellite

Ground track
Ground track

The orbit data is extracted from the following two-line orbital elements,

1 20580U 90037B   18140.87619374 +.00000439 +00000-0 +15919-4 0  9998
2 20580 028.4697 295.6487 0002612 203.3373 284.9878 15.09040012341259
Epoch (UTC): 20 May 2018 21:01:43
Eccentricity: 0.0002612
inclination: 28.4697°
perigee height: 537 km
apogee height: 541 km
right ascension of ascending node: 295.6487°
argument of perigee: 203.3373°
revolutions per day: 15.09040012
mean anomaly at epoch: 284.9878°
orbit number at epoch: 34125

The dashed part of the orbit path shows where the satellite is in the earth's shadow,  

DLR